{"data":{"norad_id":67246,"intl_designator":"2025-312A","name":"FENGYUN 4C","alt_names":[],"object_type":"PAYLOAD","status":"ACTIVE","operator":null,"country":"PRC","launch_date":"2025-12-26","launch_site_code":"XICLF","launch_vehicle":null,"mission":null,"orbit_class":"UNKNOWN","rcs_meters":null,"size_class":null,"mass_kg":null,"dimensions":null,"purposes":["comms"],"wikipedia_slug":null,"has_3d_model":false,"image_url":null,"decayed_at":null,"tle_current":{"epoch":"2026-09-19T20:41:38.647968Z","epoch_age_seconds":73403,"freshness":"FRESH","line1":"1 67246U 25312A   26262.86225287 -.00000327  00000+0  00000+0 0  9997","line2":"2 67246   0.0172 358.8384 0000395 262.3339 181.0133  1.00271615  2812","mean_motion":1.00271615,"eccentricity":3.95e-5,"inclination_deg":0.0172,"raan_deg":358.8384,"arg_perigee_deg":262.3339,"mean_anomaly_deg":181.0133,"bstar":0,"rev_number":281,"period_min":1436.099338781,"perigee_km":35784.977109634,"apogee_km":35788.308127224,"semimajor_km":42164.779618429,"source":"CELESTRAK","updated_at":"2026-09-20T09:00:35.347949Z"}}}